Tallulah, LA

9:24 AM CST on January 24, 2017 (GMT -0600)
Vicksburg Tallulah Regional

Weather History for KTVR - September, 2012

Change the Weather History Date:

Sunday, September 16, 2012

  Actual Average Record
Temperature  
Mean Temperature 76 °F 75 °F  
Max Temperature 89 °F 87 °F 100 °F (1980)
Min Temperature 63 °F 64 °F 44 °F (1961)
Degree Days  
Heating Degree Days 0 0  
Month to date heating degree days 0 0  
Since 1 July heating degree days 0 0  
Cooling Degree Days 11 10  
Month to date cooling degree days 210 192  
Year to date cooling degree days 2237 1981  
Growing Degree Days 25 (Base 50)    
Moisture  
Dew Point 65 °F    
Average Humidity 73    
Maximum Humidity 100    
Minimum Humidity 46    
Precipitation  
Precipitation 0.00 in 0.10 in 0.92 in (1962)
Month to date precipitation 0.18 1.84  
Year to date precipitation 39.28 38.41  
Sea Level Pressure  
Sea Level Pressure 30.03 in    
Wind  
Wind Speed 2 mph (ENE)    
Max Wind Speed 9 mph    
Max Gust Speed 13 mph    
Visibility 6 miles    
Events Fog    
T = Trace of Precipitation, MM = Missing Value Source: NWS Daily Summary

Daily Weather History Graph

Daily Weather History Graph

Search for Another Location

Airport or City:

Trip Planner

Search our weather history database for the weather conditions in past years. The results will help you decide how hot, cold, wet, or windy it might be!

Date:

Astronomy

Sep. 16, 2012 Rise Set
Actual Time 6:48 AM CDT 7:08 PM CDT
Civil Twilight 6:24 AM CDT 7:32 PM CDT
Nautical Twilight 5:55 AM CDT 8:01 PM CDT
Astronomical Twilight 5:26 AM CDT 8:30 PM CDT
Moon 7:22 AM CDT (9/16) 7:20 PM CDT (9/16)
Length of Visible Light 13h 08m
Length of Day
12h 19m
New Moon, 0% of the Moon is Illuminated
Sep 16
New Moon
Sep 22
First Quarter
Sep 29
Full
Oct 8
Last Quarter
Oct 15
New

Hourly Weather History & Observations

Time (CDT) Temp. Heat Index Dew Point Humidity Pressure Visibility Wind Dir Wind Speed Gust Speed Precip Events Conditions
12:53 AM 68.0 °F - 66.0 °F 93% 30.08 in 9.0 mi Calm Calm - N/A   Scattered Clouds
1:53 AM 66.0 °F - 64.9 °F 96% 30.07 in 5.0 mi Calm Calm - N/A   Clear
2:26 AM 64.4 °F - 64.4 °F 100% 30.05 in 2.5 mi Calm Calm - N/A   Clear
2:36 AM 64.4 °F - 64.4 °F 100% 30.05 in 3.0 mi Calm Calm - N/A   Clear
2:53 AM 64.0 °F - 62.1 °F 93% 30.06 in 2.5 mi Calm Calm - N/A   Clear
3:37 AM 64.4 °F - 62.6 °F 94% 30.03 in 1.8 mi Calm Calm - N/A   Clear
3:49 AM 64.4 °F - 62.6 °F 94% 30.03 in 0.5 mi Calm Calm - N/A Fog Fog
3:53 AM 64.0 °F - 62.1 °F 93% 30.05 in 0.2 mi Calm Calm - N/A Fog Fog
4:14 AM 62.6 °F - 62.6 °F 100% 30.04 in 1.5 mi Calm Calm - N/A   Clear
4:30 AM 62.6 °F - 62.6 °F 100% 30.04 in 2.5 mi Calm Calm - N/A   Clear
4:35 AM 62.6 °F - 62.6 °F 100% 30.04 in 0.8 mi Calm Calm - N/A   Clear
4:51 AM 62.6 °F - 62.6 °F 100% 30.04 in 2.0 mi Calm Calm - N/A   Clear
4:53 AM 63.0 °F - 62.1 °F 97% 30.06 in 2.5 mi Calm Calm - N/A   Clear
5:03 AM 64.4 °F - 64.4 °F 100% 30.04 in 1.5 mi Calm Calm - N/A   Clear
5:23 AM 64.4 °F - 64.4 °F 100% 30.04 in 2.5 mi SSE 3.5 mph - N/A   Mostly Cloudy
5:35 AM 64.4 °F - 62.6 °F 94% 30.04 in 3.0 mi Calm Calm - N/A   Mostly Cloudy
5:53 AM 64.9 °F - 63.0 °F 93% 30.06 in 2.5 mi Calm Calm - N/A   Overcast
6:06 AM 64.4 °F - 62.6 °F 94% 30.04 in 3.0 mi Calm Calm - N/A   Overcast
7:00 AM 64.4 °F - 62.6 °F 94% 30.05 in 2.0 mi Calm Calm - N/A   Clear
7:15 AM 64.4 °F - 62.6 °F 94% 30.05 in 1.8 mi Calm Calm - N/A   Clear
7:27 AM 64.4 °F - 64.4 °F 100% 30.05 in 2.5 mi Calm Calm - N/A   Clear
7:40 AM 68.0 °F - 66.2 °F 94% 30.05 in 3.0 mi Calm Calm - N/A   Clear
7:53 AM 70.0 °F - 68.0 °F 93% 30.07 in 6.0 mi Calm Calm - N/A   Clear
8:53 AM 75.0 °F - 70.0 °F 84% 30.07 in 10.0 mi Calm Calm - N/A   Partly Cloudy
9:53 AM 81.0 °F 84.1 °F 69.1 °F 67% 30.07 in 10.0 mi SE 3.5 mph - N/A   Partly Cloudy
10:53 AM 84.9 °F 88.2 °F 68.0 °F 57% 30.06 in 10.0 mi Calm Calm - N/A   Clear
11:53 AM 86.0 °F 88.2 °F 66.0 °F 51% 30.05 in 10.0 mi Variable 3.5 mph - N/A   Mostly Cloudy
12:53 PM 86.0 °F 88.2 °F 66.0 °F 51% 30.04 in 10.0 mi Calm Calm - N/A   Scattered Clouds
1:53 PM 88.0 °F 89.6 °F 64.9 °F 46% 30.01 in 10.0 mi East 4.6 mph - N/A   Overcast
2:53 PM 86.0 °F 87.6 °F 64.9 °F 49% 29.99 in 10.0 mi ENE 4.6 mph - N/A   Overcast
3:53 PM 86.0 °F 88.2 °F 66.0 °F 51% 29.97 in 10.0 mi East 4.6 mph - N/A   Overcast
4:53 PM 84.9 °F 87.6 °F 66.9 °F 55% 29.96 in 10.0 mi SSE 3.5 mph - N/A   Overcast
5:53 PM 84.9 °F 88.2 °F 68.0 °F 57% 29.95 in 10.0 mi Calm Calm - N/A   Scattered Clouds
6:53 PM 79.0 °F - 72.0 °F 79% 29.95 in 10.0 mi NW 3.5 mph - N/A   Clear
7:53 PM 77.0 °F - 70.0 °F 79% 29.96 in 10.0 mi North 3.5 mph - N/A   Clear
8:53 PM 71.1 °F - 68.0 °F 90% 29.97 in 10.0 mi Calm Calm - N/A   Partly Cloudy
9:53 PM 70.0 °F - 69.1 °F 97% 29.98 in 10.0 mi Calm Calm - N/A   Mostly Cloudy
10:53 PM 73.0 °F - 69.1 °F 87% 29.98 in 10.0 mi North 4.6 mph - N/A   Clear
11:53 PM 73.0 °F - 69.1 °F 87% 29.96 in 10.0 mi North 3.5 mph - N/A   Clear